FloripaSat 1
1 44885U 19093G   25174.77055021  .00003286  00000-0  27877-3 0  9990
2 44885  97.8158 262.4005 0011324 155.9102 204.2652 14.98593709298872
RS-44
1 44909U 19096E   25174.86080380  .00000042  00000-0  13133-3 0  9993
2 44909  82.5204 217.7904 0216249 262.1561  95.4944 12.79741443256556
UPMSat 2
1 46276U 20061E   25174.45673933  .00053639  00000-0  43738-3 0  9997
2 46276  97.2437 249.3222 0002330 157.0077 203.1290 15.70468491267645
SALSAT
1 46495U 20068K   25174.41486474  .00004837  00000-0  20915-3 0  9993
2 46495  97.8602 153.0839 0013028 111.5448 248.7177 15.22901859260634
CubeSX-Sirius-HSE
1 47951U 21022V   25157.62701764  .07883385  25648-5  89537-3 0  9993
2 47951  97.4004  72.1904 0010275 223.9924 136.0557 16.36879307233400
CubeSX-HSE
1 47952U 21022W   25157.69972699  .06655353  25454-5  93288-3 0  9992
2 47952  97.3980  72.5414 0010307 219.3637 140.6911 16.34906352233436
GRBAlpha
1 47959U 21022AD  25160.45426279  .07940347  25506-5  90589-3 0  9995
2 47959  97.3899  75.6235 0011032 227.2558 132.7812 16.36806138232695
TUBIN
1 48900U 21059X   25174.82547513  .00035835  00000-0  41642-3 0  9996
2 48900  97.6744 345.2225 0004088 169.3926 190.7417 15.61661789222262
LEDSAT
1 49069U 21073D   25174.65974250  .00050275  00000-0  56326-3 0  9992
2 49069  97.3896 256.8033 0007678  31.4900 328.6817 15.62512370213636
CUTE
1 49263U 21088D   25174.45750773  .00010089  00000-0  19867-3 0  9992
2 49263  97.4515 251.1183 0008375 180.7973 179.3265 15.47403797206576
TeikyoSat 4
1 49396U 21102B   25174.55509177  .00001081  00000-0  74685-4 0  9999
2 49396  97.4093 212.4790 0014242  86.5630 273.7227 15.07693406198651
Z-Sat
1 49399U 21102E   25174.82415003  .00002569  00000-0  14239-3 0  9996
2 49399  97.3791 215.9220 0019435  58.2790 302.0333 15.14515878199138
KOSEN 1
1 49402U 21102H   25174.55777039  .00004378  00000-0  20302-3 0  9999
2 49402  97.3698 219.1845 0016581  36.1147 324.1205 15.20456751199413
HO-113
1 50466U 21131B   25174.85820626  .00000308  00000-0  10992-3 0  9990
2 50466  98.5107 264.1413 0005458  94.9065 265.2746 14.40829175183509
Foresail-1
1 52766U 22057AL  25174.80565360  .02527351  25893-5  84090-3 0  9995
2 52766  97.6001 329.0527 0013926 262.2726 207.0512 16.25572321172187
SNUGLITE 2
1 52899U 22065F   25174.37181313  .00000724  00000-0  14965-3 0  9995
2 52899  98.1703 316.2120 0008844  74.1624 286.0552 14.63241634158507
UmKA 1 (RS40S)
1 57172U 23091G   25174.86923834  .00003128  00000-0  16856-3 0  9992
2 57172  97.5575 230.1772 0012690 286.4209  73.5629 15.15489016109645
CubeBel-2 (EU11S)
1 57175U 23091K   25174.86124905  .00005294  00000-0  25198-3 0  9992
2 57175  97.5575 231.4029 0010452 294.5289  65.4855 15.19553760109721
VERONIKA
1 58261U 23174F   25174.71267988  .00126107  00000-0  86129-3 0  9992
2 58261  97.4110 261.7784 0002433 282.2471  77.8521 15.74437572 90902
ENSO
1 58470U 23185J   25174.84440164  .00037027  00000-0  50783-3 0  9998
2 58470  97.3737 250.4344 0005894  41.7875 318.3829 15.57253514 87256
EIRSAT-1
1 58472U 23185L   25174.86762908  .00084271  00000-0  68903-3 0  9991
2 58472  97.3676 252.6226 0002441  49.0497 311.0976 15.70294635 87403
SONATE-2
1 59112U 24043Q   25174.63166405  .00010871  00000-0  31008-3 0  9993
2 59112  97.5148 306.0958 0011944  69.0304 291.2216 15.36164894 72498
MO-122
1 60209U 24125G   25174.31733627  .00012543  00000-0  35150-3 0  9994
2 60209  97.2781  25.7849 0020279  89.3330 271.0238 15.36533300 54061
GRBBeta
1 60237U 24128C   25174.57680778  .00002847  00000-0  22140-3 0  9995
2 60237  61.9922  30.7519 0053007  60.6862 299.9510 15.02742949 52305
Curium One
1 60242U 24128H   25174.58993131  .00004972  00000-0  35002-3 0  9994
2 60242  61.9824  28.7918 0052882  56.8898 303.7253 15.05297082 52346
ROBUSTA-3A
1 60243U 24128J   25174.86275622  .00004804  00000-0  34340-3 0  9992
2 60243  61.9894  28.7124 0051779  54.6102 305.9811 15.04829616 52371
CatSat
1 60246U 24125J   25173.04863668  .00007888  00000-0  26155-3 0  9994
2 60246  97.2585  23.6021 0043491  51.5696 308.9436 15.30597696 51890
HYPERVIEW-1G (RS66S)
1 61772U 24199AP  25174.88031194  .00012907  00000-0  36929-3 0  9992
2 61772  97.3521  43.7125 0014950 136.5942 223.6482 15.35975926 79154
AO-123
1 61781U 24199AY  25174.72112249  .00004489  00000-0  16381-3 0  9992
2 61781  97.3536  42.2881 0016879 142.8060 217.4352 15.28521860 79047
ZIMSAT 2
1 61783U 24199BA  25174.88268145  .00024026  00000-0  57107-3 0  9998
2 61783  97.3495  44.4395 0014929 133.8014 226.4471 15.41542487 82353
HADES-R (SO-124)
1 62690U 25009CK  25174.47880997  .00022827  00000-0  78756-3 0  9997
2 62690  97.4095 255.2367 0003188  75.5388 284.6206 15.29978640 24279
HYDRA-T
1 62692U 25009CM  25174.20030943  .00023447  00000-0  80239-3 0  9996
2 62692  97.4097 254.9983 0002855  73.0363 287.1190 15.30239922 24230
JINJUSat 1B
1 63210U 25052A   25173.42606474  .00007438  00000-0  33952-3 0  9994
2 63210  97.4415  67.3878 0002266 283.4374  76.6609 15.20890593 15204
NUSHSAT 1
1 63211U 25052B   25174.47147490  .00007621  00000-0  34508-3 0  9991
2 63211  97.4402  68.4247 0002281 287.0105  73.0880 15.21159832 15366
TEVEL2-4
1 63213U 25052D   25174.42204064  .00007276  00000-0  33257-3 0  9995
2 63213  97.4323  68.2314 0001795 327.4837  32.6288 15.20852043 15358
TEVEL2-5
1 63214U 25052E   25174.62019040  .00006983  00000-0  31949-3 0  9996
2 63214  97.4321  68.4254 0001838 326.4552  33.6567 15.20834031 15384
TEVEL2-6
1 63215U 25052F   25173.50414201  .00007941  00000-0  36345-3 0  9991
2 63215  97.4321  67.3202 0001976 334.0341  26.0795 15.20777127 15213
TEVEL2-1
1 63217U 25052H   25174.70159173  .00007401  00000-0  34095-3 0  9991
2 63217  97.4297  68.4388 0002506 344.6189  15.4970 15.20575281 15394
TEVEL2-2
1 63218U 25052J   25172.66186402  .00008021  00000-0  36953-3 0  9994
2 63218  97.4296  66.4286 0002828 352.1778   7.9412 15.20543950 15085
TEVEL2-3
1 63219U 25052K   25174.17560384  .00007752  00000-0  35709-3 0  9996
2 63219  97.4297  67.9202 0002566 347.1058  13.0111 15.20562792 15310
TEVEL2-8
1 63237U 25052AD  25174.44941784  .00007652  00000-0  36485-3 0  9994
2 63237  97.4359  68.0957 0007178 340.0454  20.0499 15.19355027 15343
TEVEL2-9
1 63238U 25052AE  25174.45231237  .00007512  00000-0  35889-3 0  9993
2 63238  97.4360  68.0940 0007263 339.8955  20.1992 15.19292178 15341
TEVEL2-7
1 63239U 25052AF  25174.52044129  .00007526  00000-0  35989-3 0  9990
2 63239  97.4359  68.1549 0007286 339.8774  20.2172 15.19259212 15354
HYDRA-W
1 63490U 25052BL  25174.46937883  .00016887  00000-0  70129-3 0  9995
2 63490  97.4310  68.4619 0010330 333.3897  26.6809 15.23850605 15377
HADES-ICM (SO-125)
1 63492U 25052BN  25172.64914006  .00017830  00000-0  75152-3 0  9997
2 63492  97.4314  66.6220 0010986 343.9934  16.0954 15.23329762 15095
